Theta_e
341 342 342 342 344 344 344 344 344 345 345 342 343 345 346 348 350 343 343 343 339 339 338 334 345 343 342 340 339 336 333 333 332 329 328 325 317 316 313 315 317 318 318
337 338 340 340 341 343 344 345 346 347 347 347 346 347 347 354 350 346 342 335 334 335 336 340 346 343 340 339 337 336 334 334 331 329 325 316 315 316 315 314 317 317 317
343 341 340 340 341 342 342 343 345 346 347 348 349 349 352 354 349 348 341 341 339 339 337 342 344 341 340 338 333 334 332 332 328 323 317 315 316 314 313 314 314 314 317
343 343 343 342 342 341 342 343 345 347 353 354 356 354 350 352 348 350 347 341 338 342 344 346 342 341 339 337 334 333 331 326 318 315 314 315 314 313 313 312 313 316 318
340 340 340 342 342 342 343 344 347 351 357 356 356 355 352 351 349 350 350 346 342 348 347 343 343 336 330 326 328 328 324 316 314 313 314 313 314 313 312 312 315 318 319
339 340 341 342 343 343 345 347 347 350 356 357 357 357 359 353 351 353 351 347 348 348 344 339 335 330 324 325 326 319 310 306 312 312 313 314 314 313 311 314 318 317 319
340 341 342 342 342 343 345 348 352 357 359 360 360 357 357 355 356 352 351 350 347 343 340 337 335 324 326 324 316 311 308 306 305 306 314 313 313 310 310 319 318 318 318
340 341 341 341 341 343 343 345 351 359 363 362 359 356 357 355 352 351 348 346 340 341 339 337 327 326 323 314 312 314 313 312 307 308 307 308 306 306 319 318 319 317 317
340 340 341 341 341 343 344 345 349 351 358 356 354 358 356 351 350 347 344 342 341 340 337 329 327 322 315 313 309 313 314 310 310 307 307 306 306 315 319 319 317 316 319
340 340 340 341 342 352 349 349 350 356 356 360 361 357 353 349 346 342 343 340 338 335 328 326 322 315 314 308 306 306 311 306 307 313 313 312 311 315 318 317 314 315 315
341 340 341 342 348 354 347 349 353 354 360 360 358 354 349 345 343 341 334 335 330 325 324 321 317 314 309 306 305 304 304 307 312 312 312 311 310 312 318 317 314 313 314
341 342 344 348 352 348 349 352 356 360 359 358 354 348 345 341 337 334 329 327 324 323 321 317 315 311 307 305 304 304 306 311 311 312 311 311 310 310 315 317 316 313 311
343 345 348 348 348 348 351 355 359 360 360 356 349 344 340 336 333 330 327 324 324 322 319 317 313 308 306 305 304 305 310 311 311 312 311 311 310 310 315 317 317 315 314
346 347 347 346 347 352 356 358 360 360 357 354 346 341 338 332 331 330 326 325 324 321 318 315 310 307 305 307 310 311 310 310 311 312 311 311 310 309 310 315 315 315 314
347 347 348 350 352 355 358 360 360 358 352 348 344 343 337 332 332 330 328 324 322 321 317 314 315 312 311 311 311 311 310 311 311 311 311 311 310 310 309 310 311 311 312
347 348 348 353 357 359 360 359 357 354 351 347 344 341 336 333 331 330 327 325 323 319 317 316 314 312 311 311 311 310 310 310 311 311 311 311 310 310 309 309 309 309 308
345 346 354 356 359 359 358 357 354 352 350 348 341 337 332 329 329 327 325 323 321 317 317 315 313 312 311 310 310 310 310 311 310 311 311 311 311 310 310 309 309 308 308
347 351 355 355 354 352 351 350 351 346 343 341 337 333 331 329 327 325 325 322 319 316 316 314 312 311 311 310 310 310 310 310 310 310 311 311 310 309 309 309 309 308 307
352 355 355 354 354 354 351 349 345 342 340 336 335 334 333 330 327 323 322 320 319 317 315 313 311 311 311 310 309 309 309 309 310 310 310 311 310 310 309 308 307 307 307
354 355 354 356 353 349 346 344 342 341 339 335 334 335 333 330 325 322 319 319 318 316 313 311 310 311 310 309 309 310 310 310 310 310 310 311 310 309 309 309 308 307 307
353 354 353 352 347 344 342 342 341 339 337 337 334 335 332 325 320 320 320 318 317 315 312 309 310 310 309 309 308 309 309 309 309 309 310 311 310 309 309 309 308 307 307
352 353 350 344 342 341 340 340 339 337 337 337 333 333 332 325 323 321 319 317 316 313 310 309 309 309 309 308 307 308 308 308 309 309 309 310 310 309 308 308 307 307 306
349 345 341 339 339 339 338 337 336 336 335 334 329 331 330 325 323 320 318 316 315 312 307 308 307 306 306 305 306 307 308 308 308 309 309 309 310 309 308 307 307 307 306
341 339 338 338 337 336 334 334 332 332 332 330 327 326 326 324 322 319 317 315 315 311 307 306 306 306 306 305 304 306 307 306 307 307 309 309 309 308 308 307 306 305 304
340 338 338 337 335 332 332 331 330 330 329 329 327 327 325 322 319 318 316 315 314 314 310 306 305 305 305 305 305 305 303 302 304 305 308 309 308 308 307 307 306 305 304
339 339 338 336 333 331 330 330 329 327 327 326 326 324 323 321 319 317 316 315 314 311 310 305 305 305 305 304 303 303 302 302 302 304 307 308 308 307 307 306 305 305 304
Wind_Speed
33 33 33 33 33 32 32 30 29 29 28 25 25 24 22 19 20 18 12 20 28 28 29 23 22 19 13 9 6 9 10 13 17 23 23 23 28 24 23 21 23 25 28
31 31 31 30 30 32 32 30 30 29 28 28 25 24 22 19 22 20 15 39 34 30 25 19 20 14 10 6 6 9 11 13 17 23 25 23 21 22 23 28 24 25 31
33 33 33 33 33 32 30 28 30 29 28 27 23 22 18 19 24 21 31 27 27 19 14 16 13 9 5 5 6 8 12 14 17 20 22 20 20 20 25 23 26 28 30
31 33 32 31 29 29 30 30 27 26 24 22 20 17 17 20 19 20 30 29 18 7 7 9 7 4 4 4 5 10 13 19 16 18 19 18 18 20 21 25 28 31 36
28 27 26 27 28 29 28 25 22 21 18 17 17 17 18 17 16 17 21 18 9 5 9 6 5 6 3 6 7 13 19 14 14 14 15 15 17 22 24 25 27 33 35
29 28 27 28 26 24 22 19 18 17 15 16 17 16 18 16 13 13 15 13 8 11 10 9 3 3 7 9 12 14 14 14 10 10 11 15 18 20 23 25 27 38 35
30 28 24 21 19 16 14 12 12 12 12 14 14 15 17 15 13 13 14 11 12 11 9 5 4 6 6 9 10 10 11 10 10 11 12 13 18 22 26 28 30 34 31
28 23 20 17 14 14 11 10 9 10 12 13 15 14 15 14 15 16 18 16 13 10 9 8 7 4 6 5 6 5 4 5 8 8 11 13 18 21 24 25 26 30 26
23 22 20 14 13 13 10 9 9 12 13 14 16 16 16 24 18 16 17 14 13 13 12 9 6 4 3 6 6 6 5 5 8 10 11 15 17 19 25 23 27 36 38
23 19 17 15 16 14 13 12 13 13 14 19 18 17 22 22 21 19 18 15 16 13 12 9 5 2 3 7 8 6 5 7 9 9 10 12 14 17 23 25 28 35 35
21 20 19 20 17 16 13 13 15 15 19 21 24 23 21 20 22 20 16 15 14 14 12 9 5 1 5 7 8 8 8 9 11 10 10 12 13 14 14 17 34 34 36
23 23 21 19 17 14 12 16 18 21 24 27 29 25 20 23 22 18 14 12 15 14 12 9 4 3 6 7 8 9 11 12 8 10 11 13 14 14 12 13 20 36 40
25 22 21 18 15 14 16 20 22 24 28 28 28 24 22 24 22 17 13 14 13 12 9 6 3 4 6 7 9 9 12 8 9 10 12 13 13 13 12 13 14 18 25
25 22 19 17 16 18 19 20 24 27 28 27 22 20 19 21 21 18 16 14 12 8 7 5 4 5 5 6 8 9 8 9 9 10 11 12 12 13 14 13 13 14 16
23 21 19 16 17 23 26 25 25 24 20 18 19 18 21 20 18 15 15 15 11 8 7 5 5 3 4 4 5 7 8 8 8 10 10 11 12 13 15 15 14 15 17
21 19 17 21 24 25 27 29 28 23 19 19 19 18 20 16 16 16 15 13 9 8 9 6 4 4 4 4 5 6 7 8 9 9 10 11 13 13 14 15 16 17 19
15 20 23 25 28 27 26 26 25 22 17 17 20 20 18 19 18 17 16 13 10 10 7 5 5 4 4 5 5 6 6 7 9 8 10 10 11 12 14 15 16 17 19
20 22 22 22 22 22 21 21 23 25 25 25 22 20 18 19 18 17 15 12 10 9 6 5 5 5 5 5 6 6 6 7 7 8 9 10 11 11 12 14 15 16 17
24 22 21 22 23 23 19 20 19 20 20 23 25 23 20 20 17 16 14 8 7 7 6 5 6 6 6 5 6 7 7 6 7 8 8 9 10 10 11 13 16 17 16
21 23 23 27 23 20 21 20 20 20 19 19 21 24 25 24 23 21 13 10 8 7 6 6 6 7 7 6 7 8 6 6 7 6 8 8 10 9 9 11 12 13 14
21 23 23 21 20 21 21 21 20 19 18 19 19 23 23 21 19 17 13 11 9 8 7 7 7 8 7 7 7 7 6 5 6 6 7 8 8 9 9 10 11 11 12
20 25 22 22 22 21 20 19 18 17 19 19 19 22 21 18 18 17 15 13 11 10 8 9 8 8 8 8 8 8 7 5 6 6 7 7 8 9 9 10 10 10 11
22 24 23 23 21 22 21 18 19 20 21 20 20 25 27 19 19 18 16 14 12 10 9 9 10 9 10 9 9 9 7 7 7 7 7 7 8 8 8 9 9 9 8
22 24 24 22 21 21 20 20 20 21 21 20 21 24 23 20 20 19 17 15 13 11 10 10 9 9 10 10 10 9 9 10 8 8 8 8 9 10 8 9 9 10 10
23 23 23 22 21 21 22 21 21 21 21 21 21 22 22 21 21 20 18 16 14 12 11 11 11 11 11 11 11 11 11 12 12 13 8 9 10 10 9 9 10 10 10
23 23 23 22 22 22 23 23 23 23 23 22 21 22 22 22 22 21 20 18 15 13 12 12 12 12 12 12 12 11 11 12 13 13 13 9 10 10 9 10 10 10 9
Wind_Direction
227 232 236 239 243 246 249 252 255 258 262 265 261 256 255 251 244 246 241 277 289 281 284 288 278 290 270 277 294 288 293 298 302 308 309 309 314 318 319 316 319 324 321
221 226 232 237 241 247 251 254 256 256 259 260 259 259 252 238 240 226 198 300 282 286 276 281 284 264 261 252 292 287 296 308 312 310 310 314 317 316 318 320 321 324 321
225 228 231 236 242 248 255 260 259 257 257 257 256 251 245 236 244 231 216 267 277 285 265 265 257 242 236 256 286 295 310 307 306 301 311 318 318 325 322 325 322 327 328
226 231 235 240 245 249 252 253 252 253 249 246 242 242 243 238 248 238 234 254 275 268 247 234 222 192 238 280 310 313 314 312 312 312 313 321 325 325 331 332 332 334 329
226 231 236 240 244 247 250 252 253 251 243 237 232 230 236 231 239 244 242 268 238 217 186 201 167 203 262 300 299 291 304 314 313 317 323 327 334 338 340 337 331 333 347
228 233 240 243 247 252 252 252 251 247 234 228 223 215 220 216 225 238 221 243 173 173 186 200 218 286 292 288 293 299 309 323 324 331 334 337 336 342 340 340 339 348 337
231 234 236 241 246 248 249 239 230 221 219 221 208 200 207 202 208 210 192 163 163 182 195 172 143 264 275 290 305 320 338 340 340 350 343 342 342 348 354 352 354 348 346
226 230 236 239 237 234 231 233 211 194 198 197 192 189 184 194 182 174 155 170 166 167 172 208 220 239 272 306 335 338 332 334 348 7 357 355 359 360 2 9 351 349 4
224 224 226 222 210 201 189 188 179 186 184 178 169 172 184 158 159 163 153 149 159 172 191 195 195 234 299 342 356 358 358 357 356 17 16 13 13 15 12 11 6 12 18
213 212 205 193 189 171 167 168 173 169 164 158 156 169 160 144 151 157 155 157 167 174 178 177 180 206 358 1 7 12 14 26 23 18 18 13 12 19 16 20 21 24 20
192 188 181 176 161 164 166 166 165 161 154 151 156 158 148 145 147 159 161 151 162 155 162 157 170 85 14 11 13 35 46 48 16 23 22 20 19 20 24 26 34 34 32
174 170 163 153 156 155 159 155 152 154 154 157 159 146 146 148 149 152 157 157 154 153 148 156 138 50 21 20 41 48 56 44 29 32 26 23 21 21 23 31 20 38 43
159 151 148 147 148 146 153 154 153 158 159 160 154 147 148 154 153 156 155 155 156 147 153 139 106 49 37 39 49 55 52 45 42 42 33 26 24 22 35 31 25 27 32
148 146 148 150 146 145 148 152 155 160 161 161 156 149 151 156 161 159 158 159 151 153 144 132 81 53 78 56 46 41 43 48 55 46 39 34 32 33 38 40 40 38 47
150 148 146 145 149 148 146 150 160 159 157 158 160 158 159 157 162 159 162 152 148 149 144 117 102 96 77 66 58 62 58 50 47 54 48 44 43 41 42 45 49 49 53
153 151 150 150 151 151 150 154 157 161 167 160 160 157 158 164 156 154 155 150 144 142 125 132 128 116 108 86 75 63 59 53 53 53 53 50 47 52 51 50 52 56 55
160 155 154 154 153 156 159 158 157 156 160 164 164 164 158 155 157 158 158 154 147 124 134 135 131 130 118 100 91 87 76 72 61 62 59 59 54 54 59 59 57 60 61
152 152 147 151 153 151 152 156 162 162 158 160 160 160 161 163 163 165 160 157 144 129 149 142 142 138 132 115 105 93 81 71 65 73 68 66 61 65 69 67 64 67 67
152 150 153 153 157 156 150 153 156 156 158 166 167 165 167 171 169 164 156 148 158 156 151 144 149 145 141 129 116 110 105 101 93 83 80 79 73 76 73 66 68 75 73
154 159 159 162 154 154 157 158 162 162 165 162 169 179 176 177 175 173 167 166 165 167 159 156 159 153 152 141 128 115 98 90 85 87 94 89 87 85 88 86 82 78 73
166 165 165 162 161 162 163 164 167 168 163 167 173 187 187 175 176 175 175 172 170 171 164 166 158 163 156 147 133 124 116 110 100 103 102 103 96 88 95 95 88 83 79
170 167 163 165 168 167 167 167 166 167 168 167 176 182 180 171 180 180 176 174 172 168 170 169 167 157 161 163 145 136 131 134 118 113 116 112 107 101 103 105 96 86 80
170 167 168 171 170 173 172 172 172 173 174 179 179 179 177 176 182 180 179 175 174 176 179 172 169 170 170 159 151 142 146 152 139 123 121 123 121 111 109 110 106 102 101
174 174 174 175 177 175 176 175 176 176 176 177 178 175 174 181 180 180 179 175 178 179 179 176 172 174 175 164 164 156 155 153 140 140 121 136 137 117 120 117 117 109 102
183 182 181 181 185 177 180 176 178 178 176 178 178 179 181 181 181 180 180 177 180 183 183 180 181 183 178 166 161 168 165 164 163 147 128 140 146 134 131 126 122 121 115
192 189 188 188 183 183 182 180 180 178 179 180 182 183 185 182 184 181 180 179 180 184 188 183 187 184 182 178 178 171 167 166 164 156 136 141 142 141 142 137 131 126 121